LQSat (40958 NORAD) Tracking and Keplerian Element Data

This shows tracking and keplerian element data for the satellite.

Feedback or suggestion? Click here.




ElementValue
Catalog40958
NameLQSat
Epoch Orbit29495
Epoch Day91.79250831
Epoch Year2021
RAAN151.1382
Inclination97.8118
Eccentricity0.0016955
Argument of Perigee306.2871
Mean Anonmoly53.6758
Mean Motion14.73164677
Decay Rate5.6E-07
L11 40958U 15057A 21091.79250831 .00000056 00000-0 16175-4 0 9997
L22 40958 97.8118 151.1382 0016955 306.2871 53.6758 14.73164677294955



Live tracking and technical data element details for LQSat (NORAD 40958). LQSat can be tracked NOW for your location showing map with azimuth and elevation plus other details from your city location.







IsCatalogInMostPopularTable: catalog: 40958, numindb: 442
Update: records affected: 1



GetName: 40958 LQSat

Hit Count: updated at: Thu, 23 Jan 2025 18:25:57 GMT